Year,Month,Day,Hour,Minute,Value (Times are PST for windspeed in km/hr)
2022,05,17,00,00,0.00
2022,05,17,00,01,0.00
2022,05,17,00,02,0.00
2022,05,17,00,03,2.50
2022,05,17,00,04,0.00
2022,05,17,00,05,1.80
2022,05,17,00,06,0.00
2022,05,17,00,07,0.00
2022,05,17,00,08,0.00
2022,05,17,00,09,0.00
2022,05,17,00,10,0.00
2022,05,17,00,11,0.00
2022,05,17,00,12,0.00
2022,05,17,00,13,0.00
2022,05,17,00,14,0.00
2022,05,17,00,15,0.00
2022,05,17,00,16,0.00
2022,05,17,00,17,0.00
2022,05,17,00,18,0.00
2022,05,17,00,19,0.00
2022,05,17,00,20,0.00
2022,05,17,00,21,0.00
2022,05,17,00,22,0.00
2022,05,17,00,23,0.00
2022,05,17,00,24,0.00
2022,05,17,00,25,1.00
2022,05,17,00,26,4.80
2022,05,17,00,27,3.10
2022,05,17,00,28,0.80
2022,05,17,00,29,6.30
2022,05,17,00,30,4.20
2022,05,17,00,31,2.80
2022,05,17,00,32,5.90
2022,05,17,00,33,9.20
2022,05,17,00,34,2.30
2022,05,17,00,35,5.90
2022,05,17,00,36,5.10
2022,05,17,00,37,0.20
2022,05,17,00,38,4.80
2022,05,17,00,39,5.70
2022,05,17,00,40,1.40
2022,05,17,00,41,5.60
2022,05,17,00,42,3.80
2022,05,17,00,43,3.80
2022,05,17,00,44,8.70
2022,05,17,00,45,8.60
2022,05,17,00,46,8.50
2022,05,17,00,47,10.80
2022,05,17,00,48,11.90
2022,05,17,00,49,8.10
2022,05,17,00,50,4.80
2022,05,17,00,51,5.20
2022,05,17,00,52,5.40
2022,05,17,00,53,2.20
2022,05,17,00,54,2.70
2022,05,17,00,55,4.30
2022,05,17,00,56,7.20
2022,05,17,00,57,6.00
2022,05,17,00,58,7.50
2022,05,17,00,59,1.50
2022,05,17,01,00,0.10
2022,05,17,01,01,0.90
2022,05,17,01,02,2.80
2022,05,17,01,03,0.00
2022,05,17,01,04,3.10
2022,05,17,01,05,0.00
2022,05,17,01,06,2.40
2022,05,17,01,07,4.30
2022,05,17,01,08,0.00
2022,05,17,01,09,0.40
2022,05,17,01,10,1.80
2022,05,17,01,11,0.00
2022,05,17,01,12,4.50
2022,05,17,01,13,2.70
2022,05,17,01,14,0.00
2022,05,17,01,15,4.00
2022,05,17,01,16,5.40
2022,05,17,01,17,0.90
2022,05,17,01,18,0.30
2022,05,17,01,19,3.30
2022,05,17,01,20,3.00
2022,05,17,01,21,3.30
2022,05,17,01,22,2.80
2022,05,17,01,23,0.00
2022,05,17,01,24,0.10
2022,05,17,01,25,0.00
2022,05,17,01,26,0.00
2022,05,17,01,27,0.00
2022,05,17,01,28,0.00
2022,05,17,01,29,0.00
2022,05,17,01,30,0.00
2022,05,17,01,31,0.00
2022,05,17,01,32,0.00
2022,05,17,01,33,0.00
2022,05,17,01,34,0.00
2022,05,17,01,35,0.10
2022,05,17,01,36,0.00
2022,05,17,01,37,0.20
2022,05,17,01,38,0.60
2022,05,17,01,39,0.00
2022,05,17,01,40,0.80
2022,05,17,01,41,0.90
2022,05,17,01,42,0.00
2022,05,17,01,43,0.90
2022,05,17,01,44,3.30
2022,05,17,01,45,0.60
2022,05,17,01,46,1.00
2022,05,17,01,47,3.10
2022,05,17,01,48,2.50
2022,05,17,01,49,1.60
2022,05,17,01,50,0.20
2022,05,17,01,51,1.80
2022,05,17,01,52,2.60
2022,05,17,01,53,1.50
2022,05,17,01,54,0.00
2022,05,17,01,55,0.00
2022,05,17,01,56,0.00
2022,05,17,01,57,0.10
2022,05,17,01,58,1.10
2022,05,17,01,59,0.50
2022,05,17,02,00,2.40
2022,05,17,02,01,3.40
2022,05,17,02,02,5.20
2022,05,17,02,03,4.40
2022,05,17,02,04,2.30
2022,05,17,02,05,1.40
2022,05,17,02,06,3.30
2022,05,17,02,07,3.60
2022,05,17,02,08,0.00
2022,05,17,02,09,2.40
2022,05,17,02,10,0.50
2022,05,17,02,11,3.50
2022,05,17,02,12,3.30
2022,05,17,02,13,0.60
2022,05,17,02,14,2.00
2022,05,17,02,15,1.00
2022,05,17,02,16,1.50
2022,05,17,02,17,3.50
2022,05,17,02,18,5.80
2022,05,17,02,19,3.90
2022,05,17,02,20,4.50
2022,05,17,02,21,3.00
2022,05,17,02,22,2.00
2022,05,17,02,23,4.80
2022,05,17,02,24,1.60
2022,05,17,02,25,0.00
2022,05,17,02,26,0.00
2022,05,17,02,27,0.00
2022,05,17,02,28,0.00
2022,05,17,02,29,0.00
2022,05,17,02,30,0.00
2022,05,17,02,31,0.00
2022,05,17,02,32,2.20
2022,05,17,02,33,3.70
2022,05,17,02,34,0.00
2022,05,17,02,35,0.00
2022,05,17,02,36,0.00
2022,05,17,02,37,1.40
2022,05,17,02,38,0.00
2022,05,17,02,39,0.00
2022,05,17,02,40,0.20
2022,05,17,02,41,0.00
2022,05,17,02,42,0.00
2022,05,17,02,43,0.00
2022,05,17,02,44,0.00
2022,05,17,02,45,0.00
2022,05,17,02,46,1.30
2022,05,17,02,47,0.10
2022,05,17,02,48,0.00
2022,05,17,02,49,0.20
2022,05,17,02,50,3.10
2022,05,17,02,51,1.90
2022,05,17,02,52,4.30
2022,05,17,02,53,3.00
2022,05,17,02,54,3.60
2022,05,17,02,55,0.00
2022,05,17,02,56,0.00
2022,05,17,02,57,2.60
2022,05,17,02,58,0.00
2022,05,17,02,59,6.30
2022,05,17,03,00,6.10
2022,05,17,03,01,3.10
2022,05,17,03,02,2.00
2022,05,17,03,03,1.70
2022,05,17,03,04,0.10
2022,05,17,03,05,0.50
2022,05,17,03,06,0.40
2022,05,17,03,07,0.20
2022,05,17,03,08,4.10
2022,05,17,03,09,1.70
2022,05,17,03,10,1.00
2022,05,17,03,11,0.00
2022,05,17,03,12,0.00
2022,05,17,03,13,0.00
2022,05,17,03,14,0.00
2022,05,17,03,15,0.00
2022,05,17,03,16,0.00
2022,05,17,03,17,0.00
2022,05,17,03,18,0.00
2022,05,17,03,19,0.00
2022,05,17,03,20,0.00
2022,05,17,03,21,0.00
2022,05,17,03,22,0.00
2022,05,17,03,23,0.00
2022,05,17,03,24,0.00
2022,05,17,03,25,0.00
2022,05,17,03,26,0.00
2022,05,17,03,27,0.00
2022,05,17,03,28,0.00
2022,05,17,03,29,0.00
2022,05,17,03,30,0.00
2022,05,17,03,31,0.00
2022,05,17,03,32,0.00
2022,05,17,03,33,0.00
2022,05,17,03,34,0.00
2022,05,17,03,35,0.00
2022,05,17,03,36,0.00
2022,05,17,03,37,0.00
2022,05,17,03,38,0.00
2022,05,17,03,39,0.00
2022,05,17,03,40,0.00
2022,05,17,03,41,0.00
2022,05,17,03,42,0.00
2022,05,17,03,43,0.00
2022,05,17,03,44,0.00
2022,05,17,03,45,0.00
2022,05,17,03,46,0.00
2022,05,17,03,47,0.00
2022,05,17,03,48,0.00
2022,05,17,03,49,0.00
2022,05,17,03,50,0.00
2022,05,17,03,51,0.00
2022,05,17,03,52,0.00
2022,05,17,03,53,0.00
2022,05,17,03,54,0.00
2022,05,17,03,55,0.00
2022,05,17,03,56,0.00
2022,05,17,03,57,0.00
2022,05,17,03,58,0.00
2022,05,17,03,59,0.00
2022,05,17,04,00,0.00
2022,05,17,04,01,0.00
2022,05,17,04,02,0.00
2022,05,17,04,03,0.00
2022,05,17,04,04,0.00
2022,05,17,04,05,0.00
2022,05,17,04,06,0.00
2022,05,17,04,07,0.00
2022,05,17,04,08,0.00
2022,05,17,04,09,0.00
2022,05,17,04,10,0.00
2022,05,17,04,11,0.00
2022,05,17,04,12,0.00
2022,05,17,04,13,0.00
2022,05,17,04,14,0.00
2022,05,17,04,15,0.00
2022,05,17,04,16,0.00
2022,05,17,04,17,0.00
2022,05,17,04,18,0.00
2022,05,17,04,19,0.00
2022,05,17,04,20,0.00
2022,05,17,04,21,0.00
2022,05,17,04,22,0.00
2022,05,17,04,23,0.00
2022,05,17,04,24,0.00
2022,05,17,04,25,0.00
2022,05,17,04,26,0.00
2022,05,17,04,27,0.00
2022,05,17,04,28,0.00
2022,05,17,04,29,0.00
2022,05,17,04,30,0.00
2022,05,17,04,31,0.00
2022,05,17,04,32,0.00
2022,05,17,04,33,0.00
2022,05,17,04,34,0.00
2022,05,17,04,35,0.00
2022,05,17,04,36,0.00
2022,05,17,04,37,0.00
2022,05,17,04,38,0.00
2022,05,17,04,39,0.00
2022,05,17,04,40,0.00
2022,05,17,04,41,0.00
2022,05,17,04,42,0.00
2022,05,17,04,43,0.00
2022,05,17,04,44,0.00
2022,05,17,04,45,0.00
2022,05,17,04,46,0.00
2022,05,17,04,47,0.00
2022,05,17,04,48,0.00
2022,05,17,04,49,0.00
2022,05,17,04,50,0.00
2022,05,17,04,51,0.00
2022,05,17,04,52,0.00
2022,05,17,04,53,0.00
2022,05,17,04,54,0.00
2022,05,17,04,55,0.00
2022,05,17,04,56,0.00
2022,05,17,04,57,0.00
2022,05,17,04,58,0.00
2022,05,17,04,59,0.00
2022,05,17,05,00,0.00
2022,05,17,05,01,0.00
2022,05,17,05,02,0.00
2022,05,17,05,03,0.00
2022,05,17,05,04,0.00
2022,05,17,05,05,0.00
2022,05,17,05,06,0.00
2022,05,17,05,07,0.00
2022,05,17,05,08,0.00
2022,05,17,05,09,0.00
2022,05,17,05,10,0.00
2022,05,17,05,11,0.00
2022,05,17,05,12,0.00
2022,05,17,05,13,0.00
2022,05,17,05,14,0.00
2022,05,17,05,15,0.00
2022,05,17,05,16,0.00
2022,05,17,05,17,0.00
2022,05,17,05,18,0.00
2022,05,17,05,19,0.00
2022,05,17,05,20,0.00
2022,05,17,05,21,0.00
2022,05,17,05,22,0.00
2022,05,17,05,23,0.00
2022,05,17,05,24,0.00
2022,05,17,05,25,0.00
2022,05,17,05,26,0.00
2022,05,17,05,27,0.00
2022,05,17,05,28,0.00
2022,05,17,05,29,0.00
2022,05,17,05,30,0.00
2022,05,17,05,31,0.00
2022,05,17,05,32,0.00
2022,05,17,05,33,0.00
2022,05,17,05,34,0.00
2022,05,17,05,35,0.00
2022,05,17,05,36,0.00
2022,05,17,05,37,0.00
2022,05,17,05,38,0.00
2022,05,17,05,39,0.00
2022,05,17,05,40,0.00
2022,05,17,05,41,0.00
2022,05,17,05,42,0.00
2022,05,17,05,43,0.00
2022,05,17,05,44,0.00
2022,05,17,05,45,0.00
2022,05,17,05,46,0.00
2022,05,17,05,47,0.00
2022,05,17,05,48,0.00
2022,05,17,05,49,0.00
2022,05,17,05,50,0.00
2022,05,17,05,51,0.00
2022,05,17,05,52,0.00
2022,05,17,05,53,0.00
2022,05,17,05,54,0.00
2022,05,17,05,55,0.00
2022,05,17,05,56,0.00
2022,05,17,05,57,0.00
2022,05,17,05,58,0.00
2022,05,17,05,59,0.00
2022,05,17,06,00,0.00
2022,05,17,06,01,0.00
2022,05,17,06,02,0.00
2022,05,17,06,03,0.00
2022,05,17,06,04,0.00
2022,05,17,06,05,0.00
2022,05,17,06,06,0.00
2022,05,17,06,07,0.00
2022,05,17,06,08,0.00
2022,05,17,06,09,0.00
2022,05,17,06,10,0.00
2022,05,17,06,11,0.00
2022,05,17,06,12,0.00
2022,05,17,06,13,0.00
2022,05,17,06,14,0.00
2022,05,17,06,15,0.00
2022,05,17,06,16,0.00
2022,05,17,06,17,0.00
2022,05,17,06,18,0.00
2022,05,17,06,19,0.00
2022,05,17,06,20,0.00
2022,05,17,06,21,0.00
2022,05,17,06,22,0.00
2022,05,17,06,23,0.00
2022,05,17,06,24,0.00
2022,05,17,06,25,0.00
2022,05,17,06,26,0.00
2022,05,17,06,27,0.00
2022,05,17,06,28,0.00
2022,05,17,06,29,0.00
2022,05,17,06,30,0.00
2022,05,17,06,31,0.00
2022,05,17,06,32,0.00
2022,05,17,06,33,0.00
2022,05,17,06,34,0.00
2022,05,17,06,35,0.00
2022,05,17,06,36,0.00
2022,05,17,06,37,0.00
2022,05,17,06,38,0.00
2022,05,17,06,39,0.00
2022,05,17,06,40,0.00
2022,05,17,06,41,0.00
2022,05,17,06,42,0.00
2022,05,17,06,43,0.00
2022,05,17,06,44,0.00
2022,05,17,06,45,0.00
2022,05,17,06,46,0.00
2022,05,17,06,47,0.00
2022,05,17,06,48,0.00
2022,05,17,06,49,0.00
2022,05,17,06,50,0.00
2022,05,17,06,51,0.00
2022,05,17,06,52,0.00
2022,05,17,06,53,0.00
2022,05,17,06,54,0.00
2022,05,17,06,55,0.00
2022,05,17,06,56,0.00
2022,05,17,06,57,0.00
2022,05,17,06,58,0.00
2022,05,17,06,59,0.00
2022,05,17,07,00,0.00
2022,05,17,07,01,0.00
2022,05,17,07,02,0.00
2022,05,17,07,03,0.00
2022,05,17,07,04,0.00
2022,05,17,07,05,0.00
2022,05,17,07,06,0.00
2022,05,17,07,07,0.00
2022,05,17,07,08,0.00
2022,05,17,07,09,0.00
2022,05,17,07,10,0.00
2022,05,17,07,11,0.00
2022,05,17,07,12,0.00
2022,05,17,07,13,0.00
2022,05,17,07,14,0.00
2022,05,17,07,15,0.00
2022,05,17,07,16,0.00
2022,05,17,07,17,0.00
2022,05,17,07,18,0.00
2022,05,17,07,19,0.00
2022,05,17,07,20,0.00
2022,05,17,07,21,0.00
2022,05,17,07,22,0.00
2022,05,17,07,23,0.00
2022,05,17,07,24,0.00
2022,05,17,07,25,0.00
2022,05,17,07,26,0.10
2022,05,17,07,27,0.00
2022,05,17,07,28,0.00
2022,05,17,07,29,1.90
2022,05,17,07,30,4.20
2022,05,17,07,31,3.60
2022,05,17,07,32,0.80
2022,05,17,07,33,2.20
2022,05,17,07,34,3.30
2022,05,17,07,35,1.20
2022,05,17,07,36,0.00
2022,05,17,07,37,0.00
2022,05,17,07,38,0.00
2022,05,17,07,39,0.00
2022,05,17,07,40,0.00
2022,05,17,07,41,2.40
2022,05,17,07,42,6.60
2022,05,17,07,43,6.10
2022,05,17,07,44,6.70
2022,05,17,07,45,2.40
2022,05,17,07,46,5.70
2022,05,17,07,47,4.30
2022,05,17,07,48,5.30
2022,05,17,07,49,8.40
2022,05,17,07,50,3.60
2022,05,17,07,51,5.10
2022,05,17,07,52,6.30
2022,05,17,07,53,7.20
2022,05,17,07,54,7.70
2022,05,17,07,55,6.80
2022,05,17,07,56,4.70
2022,05,17,07,57,7.70
2022,05,17,07,58,6.40
2022,05,17,07,59,0.00
2022,05,17,08,00,6.70
2022,05,17,08,01,7.00
2022,05,17,08,02,7.10
2022,05,17,08,03,9.80
2022,05,17,08,04,7.70
2022,05,17,08,05,6.00
2022,05,17,08,06,8.30
2022,05,17,08,07,7.60
2022,05,17,08,08,6.10
2022,05,17,08,09,2.20
2022,05,17,08,10,6.90
2022,05,17,08,11,6.40
2022,05,17,08,12,3.80
2022,05,17,08,13,3.10
2022,05,17,08,14,6.30
2022,05,17,08,15,5.40
2022,05,17,08,16,5.20
2022,05,17,08,17,6.90
2022,05,17,08,18,5.60
2022,05,17,08,19,4.20
2022,05,17,08,20,9.70
2022,05,17,08,21,10.90
2022,05,17,08,22,13.40
2022,05,17,08,23,9.30
2022,05,17,08,24,9.00
2022,05,17,08,25,10.10
2022,05,17,08,26,6.40
2022,05,17,08,27,8.40
2022,05,17,08,28,12.50
2022,05,17,08,29,15.30
2022,05,17,08,30,11.90
2022,05,17,08,31,9.70
2022,05,17,08,32,12.70
2022,05,17,08,33,6.00
2022,05,17,08,34,11.30
2022,05,17,08,35,14.70
2022,05,17,08,36,10.90
2022,05,17,08,37,7.40
2022,05,17,08,38,11.70
2022,05,17,08,39,8.90
2022,05,17,08,40,8.40
2022,05,17,08,41,13.70
2022,05,17,08,42,15.10
2022,05,17,08,43,13.30
2022,05,17,08,44,8.00
2022,05,17,08,45,6.00
2022,05,17,08,46,9.80
2022,05,17,08,47,9.30
2022,05,17,08,48,10.90
2022,05,17,08,49,11.30
2022,05,17,08,50,8.30
2022,05,17,08,51,14.20
2022,05,17,08,52,12.20
2022,05,17,08,53,14.10
2022,05,17,08,54,17.30
2022,05,17,08,55,15.10
2022,05,17,08,56,13.90
2022,05,17,08,57,10.00
2022,05,17,08,58,13.10
2022,05,17,08,59,17.90
2022,05,17,09,00,13.80
2022,05,17,09,01,11.30
2022,05,17,09,02,13.80
2022,05,17,09,03,10.10
2022,05,17,09,04,12.60
2022,05,17,09,05,16.30
2022,05,17,09,06,9.20
2022,05,17,09,07,6.70
2022,05,17,09,08,10.90
2022,05,17,09,09,12.60
2022,05,17,09,10,13.90
2022,05,17,09,11,10.40
2022,05,17,09,12,10.80
2022,05,17,09,13,12.90
2022,05,17,09,14,12.20
2022,05,17,09,15,8.10
2022,05,17,09,16,5.90
2022,05,17,09,17,6.90
2022,05,17,09,18,9.90
2022,05,17,09,19,11.50
2022,05,17,09,20,16.20
2022,05,17,09,21,11.10
2022,05,17,09,22,14.90
2022,05,17,09,23,13.80
2022,05,17,09,24,14.30
2022,05,17,09,25,13.10
2022,05,17,09,26,14.10
2022,05,17,09,27,12.10
2022,05,17,09,28,11.90
2022,05,17,09,29,11.10
2022,05,17,09,30,12.60
2022,05,17,09,31,14.20
2022,05,17,09,32,14.20
2022,05,17,09,33,13.10
2022,05,17,09,34,14.60
2022,05,17,09,35,15.80
2022,05,17,09,36,12.40
2022,05,17,09,37,14.50
2022,05,17,09,38,14.40
2022,05,17,09,39,17.50
2022,05,17,09,40,12.30
2022,05,17,09,41,12.60
2022,05,17,09,42,14.50
2022,05,17,09,43,16.40
2022,05,17,09,44,14.70
2022,05,17,09,45,13.40
2022,05,17,09,46,17.10
2022,05,17,09,47,17.10
2022,05,17,09,48,17.00
2022,05,17,09,49,16.80
2022,05,17,09,50,12.10
2022,05,17,09,51,8.40
2022,05,17,09,52,10.60
2022,05,17,09,53,11.40
2022,05,17,09,54,14.90
2022,05,17,09,55,9.50
2022,05,17,09,56,16.60
2022,05,17,09,57,15.20
2022,05,17,09,58,13.90
2022,05,17,09,59,14.50
2022,05,17,10,00,12.20
2022,05,17,10,01,12.60
2022,05,17,10,02,11.40
2022,05,17,10,03,6.70
2022,05,17,10,04,11.50
2022,05,17,10,05,16.80
2022,05,17,10,06,14.60
2022,05,17,10,07,14.40
2022,05,17,10,08,15.00
2022,05,17,10,09,15.20
2022,05,17,10,10,14.70
2022,05,17,10,11,15.20
2022,05,17,10,12,12.40
2022,05,17,10,13,13.70
2022,05,17,10,14,15.20
2022,05,17,10,15,17.50
2022,05,17,10,16,18.00
2022,05,17,10,17,14.40
2022,05,17,10,18,8.80
2022,05,17,10,19,12.10
2022,05,17,10,20,4.60
2022,05,17,10,21,8.10
2022,05,17,10,22,8.90
2022,05,17,10,23,9.90
2022,05,17,10,24,3.10
2022,05,17,10,25,5.30
2022,05,17,10,26,9.00
2022,05,17,10,27,11.30
2022,05,17,10,28,11.50
2022,05,17,10,29,9.70
2022,05,17,10,30,11.00
2022,05,17,10,31,15.80
2022,05,17,10,32,15.60
2022,05,17,10,33,12.20
2022,05,17,10,34,15.90
2022,05,17,10,35,14.10
2022,05,17,10,36,17.20
2022,05,17,10,37,9.90
2022,05,17,10,38,8.60
2022,05,17,10,39,10.90
2022,05,17,10,40,10.60
2022,05,17,10,41,17.00
2022,05,17,10,42,15.80
2022,05,17,10,43,9.70
2022,05,17,10,44,8.20
2022,05,17,10,45,14.70
2022,05,17,10,46,17.50
2022,05,17,10,47,15.20
2022,05,17,10,48,11.80
2022,05,17,10,49,19.10
2022,05,17,10,50,15.40
2022,05,17,10,51,13.30
2022,05,17,10,52,10.20
2022,05,17,10,53,13.60
2022,05,17,10,54,16.50
2022,05,17,10,55,22.90
2022,05,17,10,56,15.80
2022,05,17,10,57,16.70
2022,05,17,10,58,12.60
2022,05,17,10,59,11.40
2022,05,17,11,00,11.00
2022,05,17,11,01,15.40
2022,05,17,11,02,19.40
2022,05,17,11,03,18.30
2022,05,17,11,04,15.70
2022,05,17,11,05,17.10
2022,05,17,11,06,9.00
2022,05,17,11,07,12.30
2022,05,17,11,08,14.20
2022,05,17,11,09,10.30
2022,05,17,11,10,14.50
2022,05,17,11,11,14.20
2022,05,17,11,12,10.50
2022,05,17,11,13,10.00
2022,05,17,11,14,15.80
2022,05,17,11,15,12.60
2022,05,17,11,16,8.90
2022,05,17,11,17,16.70
2022,05,17,11,18,11.00
2022,05,17,11,19,12.10
2022,05,17,11,20,15.40
2022,05,17,11,21,15.30
2022,05,17,11,22,16.10
2022,05,17,11,23,14.40
2022,05,17,11,24,11.20
2022,05,17,11,25,14.80
2022,05,17,11,26,15.90
2022,05,17,11,27,16.30
2022,05,17,11,28,11.10
2022,05,17,11,29,10.60
2022,05,17,11,30,13.60
2022,05,17,11,31,16.00
2022,05,17,11,32,11.90
2022,05,17,11,33,14.30
2022,05,17,11,34,15.80
2022,05,17,11,35,13.50
2022,05,17,11,36,16.10
2022,05,17,11,37,15.00
2022,05,17,11,38,6.40
2022,05,17,11,39,10.70
2022,05,17,11,40,12.10
2022,05,17,11,41,7.20
2022,05,17,11,42,13.60
2022,05,17,11,43,12.10
2022,05,17,11,44,13.30
2022,05,17,11,45,8.60
2022,05,17,11,46,11.90
2022,05,17,11,47,9.70
2022,05,17,11,48,11.00
2022,05,17,11,49,11.50
2022,05,17,11,50,13.30
2022,05,17,11,51,16.50
2022,05,17,11,52,12.70
2022,05,17,11,53,11.70
2022,05,17,11,54,9.00
2022,05,17,11,55,11.00
2022,05,17,11,56,8.50
2022,05,17,11,57,9.10
2022,05,17,11,58,7.70
2022,05,17,11,59,14.20
2022,05,17,12,00,15.80
2022,05,17,12,01,13.00
2022,05,17,12,02,14.50
2022,05,17,12,03,13.40
2022,05,17,12,04,15.20
2022,05,17,12,05,14.00
2022,05,17,12,06,15.90
2022,05,17,12,07,16.40
2022,05,17,12,08,15.20
2022,05,17,12,09,13.50
2022,05,17,12,10,14.50
2022,05,17,12,11,7.20
2022,05,17,12,12,0.90
2022,05,17,12,13,6.70
2022,05,17,12,14,14.30
2022,05,17,12,15,16.30
2022,05,17,12,16,16.90
2022,05,17,12,17,11.90
2022,05,17,12,18,15.50
2022,05,17,12,19,12.90
2022,05,17,12,20,12.00
2022,05,17,12,21,16.40
2022,05,17,12,22,20.20
2022,05,17,12,23,18.70
2022,05,17,12,24,12.50
2022,05,17,12,25,17.30
2022,05,17,12,26,17.50
2022,05,17,12,27,18.60
2022,05,17,12,28,16.40
2022,05,17,12,29,15.90
2022,05,17,12,30,13.00
2022,05,17,12,31,19.60
2022,05,17,12,32,14.70
2022,05,17,12,33,14.30
2022,05,17,12,34,17.10
2022,05,17,12,35,14.70
2022,05,17,12,36,19.30
2022,05,17,12,37,15.50
2022,05,17,12,38,14.90
2022,05,17,12,39,20.20
2022,05,17,12,40,16.40
2022,05,17,12,41,11.70
2022,05,17,12,42,12.70
2022,05,17,12,43,13.80
2022,05,17,12,44,14.80
2022,05,17,12,45,12.80
2022,05,17,12,46,12.40
2022,05,17,12,47,12.10
2022,05,17,12,48,10.70
2022,05,17,12,49,12.90
2022,05,17,12,50,11.70
2022,05,17,12,51,9.30
2022,05,17,12,52,14.00
2022,05,17,12,53,12.20
2022,05,17,12,54,14.40
2022,05,17,12,55,12.70
2022,05,17,12,56,15.20
2022,05,17,12,57,14.60
2022,05,17,12,58,14.60
2022,05,17,12,59,16.20
2022,05,17,13,00,15.50
2022,05,17,13,01,12.40
2022,05,17,13,02,7.50
2022,05,17,13,03,12.30
2022,05,17,13,04,12.30
2022,05,17,13,05,14.60
2022,05,17,13,06,14.30
2022,05,17,13,07,13.10
2022,05,17,13,08,20.50
2022,05,17,13,09,12.90
2022,05,17,13,10,15.80
2022,05,17,13,11,20.30
2022,05,17,13,12,14.10
2022,05,17,13,13,15.80
2022,05,17,13,14,15.00
2022,05,17,13,15,13.60
2022,05,17,13,16,13.70
2022,05,17,13,17,13.60
2022,05,17,13,18,15.10
2022,05,17,13,19,17.80
2022,05,17,13,20,12.10
2022,05,17,13,21,13.40
2022,05,17,13,22,18.30
2022,05,17,13,23,12.60
2022,05,17,13,24,17.90
2022,05,17,13,25,14.60
2022,05,17,13,26,18.50
2022,05,17,13,27,16.70
2022,05,17,13,28,12.00
2022,05,17,13,29,11.80
2022,05,17,13,30,12.30
2022,05,17,13,31,19.20
2022,05,17,13,32,12.90
2022,05,17,13,33,12.20
2022,05,17,13,34,11.00
2022,05,17,13,35,13.10
2022,05,17,13,36,15.30
2022,05,17,13,37,17.70
2022,05,17,13,38,14.70
2022,05,17,13,39,13.20
2022,05,17,13,40,14.60
2022,05,17,13,41,16.20
2022,05,17,13,42,17.10
2022,05,17,13,43,11.30
2022,05,17,13,44,17.50
2022,05,17,13,45,12.10
2022,05,17,13,46,7.60
2022,05,17,13,47,10.50
2022,05,17,13,48,10.20
2022,05,17,13,49,12.30
2022,05,17,13,50,13.80
2022,05,17,13,51,12.40
2022,05,17,13,52,12.10
2022,05,17,13,53,12.40
2022,05,17,13,54,14.90
2022,05,17,13,55,14.40
2022,05,17,13,56,14.60
2022,05,17,13,57,16.80
2022,05,17,13,58,14.60
2022,05,17,13,59,11.30
2022,05,17,14,00,12.30
2022,05,17,14,01,14.30
2022,05,17,14,02,12.20
2022,05,17,14,03,7.50
2022,05,17,14,04,12.90
2022,05,17,14,05,12.60
2022,05,17,14,06,10.00
2022,05,17,14,07,9.40
2022,05,17,14,08,14.90
2022,05,17,14,09,12.80
2022,05,17,14,10,14.20
2022,05,17,14,11,16.50
2022,05,17,14,12,13.90
2022,05,17,14,13,11.70
2022,05,17,14,14,14.50
2022,05,17,14,15,13.40
2022,05,17,14,16,11.50
2022,05,17,14,17,8.30
2022,05,17,14,18,14.60
2022,05,17,14,19,13.20
2022,05,17,14,20,15.60
2022,05,17,14,21,13.60
2022,05,17,14,22,10.50
2022,05,17,14,23,12.30
2022,05,17,14,24,12.80
2022,05,17,14,25,11.80
2022,05,17,14,26,11.40
2022,05,17,14,27,10.70
2022,05,17,14,28,14.30
2022,05,17,14,29,11.70
2022,05,17,14,30,14.60
2022,05,17,14,31,13.60
2022,05,17,14,32,12.10
2022,05,17,14,33,10.10
2022,05,17,14,34,9.00
2022,05,17,14,35,9.40
2022,05,17,14,36,14.00
2022,05,17,14,37,14.10
2022,05,17,14,38,12.30
2022,05,17,14,39,10.00
2022,05,17,14,40,11.70
2022,05,17,14,41,14.60
2022,05,17,14,42,9.70
2022,05,17,14,43,6.70
2022,05,17,14,44,9.10
2022,05,17,14,45,5.80
2022,05,17,14,46,9.90
2022,05,17,14,47,14.50
2022,05,17,14,48,8.90
2022,05,17,14,49,15.50
2022,05,17,14,50,12.00
2022,05,17,14,51,15.70
2022,05,17,14,52,15.00
2022,05,17,14,53,16.40
2022,05,17,14,54,13.80
2022,05,17,14,55,14.90
2022,05,17,14,56,9.50
2022,05,17,14,57,15.60
2022,05,17,14,58,11.90
2022,05,17,14,59,13.40
2022,05,17,15,00,13.30
2022,05,17,15,01,12.30
2022,05,17,15,02,6.00
2022,05,17,15,03,9.90
2022,05,17,15,04,15.50
2022,05,17,15,05,7.10
2022,05,17,15,06,11.00
2022,05,17,15,07,10.20
2022,05,17,15,08,15.20
2022,05,17,15,09,13.40
2022,05,17,15,10,7.10
2022,05,17,15,11,10.00
2022,05,17,15,12,18.90
2022,05,17,15,13,12.70
2022,05,17,15,14,11.70
2022,05,17,15,15,15.30
2022,05,17,15,16,14.80
2022,05,17,15,17,12.60
2022,05,17,15,18,13.00
2022,05,17,15,19,12.60
2022,05,17,15,20,8.10
2022,05,17,15,21,13.90
2022,05,17,15,22,14.00
2022,05,17,15,23,10.90
2022,05,17,15,24,14.10
2022,05,17,15,25,12.30
2022,05,17,15,26,18.60
2022,05,17,15,27,17.10
2022,05,17,15,28,12.90
2022,05,17,15,29,16.30
2022,05,17,15,30,15.10
2022,05,17,15,31,15.80
2022,05,17,15,32,13.70
2022,05,17,15,33,11.10
2022,05,17,15,34,11.70
2022,05,17,15,35,12.60
2022,05,17,15,36,14.20
2022,05,17,15,37,12.00
2022,05,17,15,38,10.20
2022,05,17,15,39,12.50
2022,05,17,15,40,11.30
2022,05,17,15,41,5.80
2022,05,17,15,42,14.70
2022,05,17,15,43,14.00
2022,05,17,15,44,14.80
2022,05,17,15,45,12.00
2022,05,17,15,46,10.00
2022,05,17,15,47,14.80
2022,05,17,15,48,9.80
2022,05,17,15,49,8.90
2022,05,17,15,50,9.50
2022,05,17,15,51,12.20
2022,05,17,15,52,11.30
2022,05,17,15,53,7.20
2022,05,17,15,54,10.00
2022,05,17,15,55,7.00
2022,05,17,15,56,15.70
2022,05,17,15,57,5.90
2022,05,17,15,58,6.70
2022,05,17,15,59,11.10
2022,05,17,16,00,12.90
2022,05,17,16,01,13.80
2022,05,17,16,02,11.30
2022,05,17,16,03,11.10
2022,05,17,16,04,7.20
2022,05,17,16,05,12.40
2022,05,17,16,06,9.70
2022,05,17,16,07,8.20
2022,05,17,16,08,10.40
2022,05,17,16,09,11.70
2022,05,17,16,10,7.60
2022,05,17,16,11,7.30
2022,05,17,16,12,5.40
2022,05,17,16,13,7.40
2022,05,17,16,14,8.90
2022,05,17,16,15,8.00
2022,05,17,16,16,7.50
2022,05,17,16,17,10.60
2022,05,17,16,18,10.90
2022,05,17,16,19,12.40
2022,05,17,16,20,12.40
2022,05,17,16,21,12.80
2022,05,17,16,22,11.10
2022,05,17,16,23,5.70
2022,05,17,16,24,11.00
2022,05,17,16,25,9.60
2022,05,17,16,26,6.40
2022,05,17,16,27,9.60
2022,05,17,16,28,8.10
2022,05,17,16,29,7.80
2022,05,17,16,30,13.30
2022,05,17,16,31,9.50
2022,05,17,16,32,10.90
2022,05,17,16,33,11.50
2022,05,17,16,34,10.40
2022,05,17,16,35,10.60
2022,05,17,16,36,11.80
2022,05,17,16,37,3.80
2022,05,17,16,38,6.80
2022,05,17,16,39,13.10
2022,05,17,16,40,11.10
2022,05,17,16,41,6.10
2022,05,17,16,42,10.40
2022,05,17,16,43,11.10
2022,05,17,16,44,11.00
2022,05,17,16,45,7.90
2022,05,17,16,46,11.70
2022,05,17,16,47,8.90
2022,05,17,16,48,6.00
2022,05,17,16,49,1.20
2022,05,17,16,50,7.40
2022,05,17,16,51,10.50
2022,05,17,16,52,8.90
2022,05,17,16,53,8.10
2022,05,17,16,54,3.40
2022,05,17,16,55,5.90
2022,05,17,16,56,12.20
2022,05,17,16,57,12.80
2022,05,17,16,58,10.50
2022,05,17,16,59,10.00
2022,05,17,17,00,9.40
2022,05,17,17,01,9.60
2022,05,17,17,02,10.10
2022,05,17,17,03,11.00
2022,05,17,17,04,13.10
2022,05,17,17,05,8.90
2022,05,17,17,06,9.70
2022,05,17,17,07,7.40
2022,05,17,17,08,11.30
2022,05,17,17,09,11.80
2022,05,17,17,10,9.80
2022,05,17,17,11,10.60
2022,05,17,17,12,8.30
2022,05,17,17,13,11.00
2022,05,17,17,14,8.40
2022,05,17,17,15,7.30
2022,05,17,17,16,5.80
2022,05,17,17,17,6.40
2022,05,17,17,18,8.20
2022,05,17,17,19,3.90
2022,05,17,17,20,5.80
2022,05,17,17,21,9.20
2022,05,17,17,22,5.10
2022,05,17,17,23,10.10
2022,05,17,17,24,10.50
2022,05,17,17,25,8.70
2022,05,17,17,26,8.60
2022,05,17,17,27,7.30
2022,05,17,17,28,7.30
2022,05,17,17,29,10.10
2022,05,17,17,30,6.50
2022,05,17,17,31,7.20
2022,05,17,17,32,8.00
2022,05,17,17,33,12.10
2022,05,17,17,34,8.80
2022,05,17,17,35,8.90
2022,05,17,17,36,12.00
2022,05,17,17,37,12.00
2022,05,17,17,38,8.10
2022,05,17,17,39,9.00
2022,05,17,17,40,11.40
2022,05,17,17,41,10.70
2022,05,17,17,42,12.90
2022,05,17,17,43,8.60
2022,05,17,17,44,6.90
2022,05,17,17,45,4.40
2022,05,17,17,46,10.10